This demonstration page uses our WeatherBlox Daily Observations layout. Learn more.

Left ArrowRight Arrow

Hourly Observations for June 13, 2019

Temp ( °F °C ) Dew Point ( °F °C ) Humidity (%) Winds ( mph kmh ) Pressure ( in mb ) Visibility ( mi km ) Precip ( " mm )
12:22 am 00:22 Cloudy 69 20.6 67 19.4 93 93 ENE 5 7 29.92 1013 9 14 0.00 0.00
12:59 am 00:59 Cloudy 70 21.1 68 20 93 93 E 7 11 29.88 1012 9 14 0.00 0.00
1:59 am 01:59 Cloudy 71 21.7 70 21.1 96 96 SE 5 7 29.85 1011 8 13 0.00 0.00
2:30 am 02:30 Cloudy 71 21.7 70 21.1 96 96 SE 7 11 29.82 1010 9 14 0.00 0.00
2:59 am 02:59 Cloudy 72 22.2 70 21.1 94 94 SE 5 7 29.81 1009 9 14 0.00 0.00
3:24 am 03:24 Cloudy 72 22.2 70 21.1 94 94 VRB 6 9 29.80 1009 10 16 0.00 0.00
3:59 am 03:59 Cloudy 73 22.8 71 21.7 94 94 VRB 7 11 29.78 1008 10 16 0.00 0.00
4:59 am 04:59 Cloudy 73 22.8 71 21.7 94 94 S 9 15 29.76 1008 10 16 0.00 0.00
5:59 am 05:59 Mostly Cloudy 74 23.3 71 21.7 91 91 SSW 10 17 29.76 1008 10 16 0.00 0.00
6:10 am 06:10 Mostly Cloudy 74 23.3 71 21.7 91 91 SSW 9 15 29.76 1008 10 16 0.00 0.00
6:59 am 06:59 Cloudy with Mist and Fog 74 23.3 71 21.7 91 91 SSW 10 17 29.77 1008 4 6 0.00 0.00
7:11 am 07:11 Cloudy with Light Rain 73 22.8 70 21.1 90 90 W 13 20 29.78 1008 4 6 0.02 0.51
7:16 am 07:16 Cloudy with Light Rain 71 21.7 68 20 90 90 NW 13 20 29.78 1008 4 6 0.02 0.51
7:27 am 07:27 Cloudy with Light Rain 70 21.1 67 19.4 90 90 NW 13 20 29.79 1009 4 6 0.03 0.76
7:59 am 07:59 Cloudy 69 20.6 67 19.4 93 93 WNW 7 11 29.79 1009 10 16 0.05 1.27
8:59 am 08:59 Mostly Cloudy 71 21.7 67 19.4 87 87 W 6 9 29.81 1009 10 16 0.00 0.00
9:32 am 09:32 Mostly Cloudy 72 22.2 67 19.4 84 84 W 10 17 29.81 1009 10 16 0.00 0.00
9:49 am 09:49 Mostly Cloudy 72 22.2 66 18.9 82 82 W 10 17 29.82 1010 10 16 0.00 0.00
9:59 am 09:59 Mostly Cloudy 72 22.2 66 18.9 82 82 WNW 12 19 29.82 1010 10 16 0.00 0.00
10:41 am 10:41 Mostly Cloudy 73 22.8 66 18.9 79 79 W 8 13 29.83 1010 10 16 0.00 0.00
10:59 am 10:59 Mostly Cloudy 72 22.2 66 18.9 82 82 W 12 19 29.84 1010 10 16 0.00 0.00
11:48 am 11:48 Cloudy 74 23.3 65 18.3 74 74 W 9 15 29.84 1010 10 16 0.00 0.00
11:59 am 11:59 Mostly Cloudy 74 23.3 67 19.4 79 79 W 8 13 29.84 1011 10 16 0.00 0.00
12:59 pm 12:59 Mostly Cloudy 76 24.4 66 18.9 72 72 W 8 13 29.83 1010 10 16 0.00 0.00
1:59 pm 13:59 Mostly Cloudy 78 25.6 67 19.4 69 69 SW 8 13 29.82 1010 10 16 0.00 0.00
2:59 pm 14:59 Mostly Cloudy 77 25 65 18.3 66 66 WSW 10 17 29.82 1010 10 16 0.00 0.00
3:59 pm 15:59 Partly Cloudy 79 26.1 65 18.3 62 62 SW 13 20 29.82 1010 10 16 0.00 0.00
4:59 pm 16:59 Partly Cloudy 80 26.7 65 18.3 60 60 SW 14 22 29.81 1009 10 16 0.00 0.00
5:59 pm 17:59 Partly Cloudy 78 25.6 63 17.2 60 60 SW 14 22 29.80 1009 10 16 0.00 0.00
6:59 pm 18:59 Mostly Cloudy 77 25 64 17.8 64 64 SSW 14 22 29.82 1010 10 16 0.00 0.00
7:59 pm 19:59 Mostly Cloudy 75 23.9 63 17.2 66 66 SSW 12 19 29.85 1011 10 16 0.00 0.00
8:59 pm 20:59 Cloudy with Light Rain 67 19.4 61 16.1 81 81 SW 17 28 29.91 1013 5 8 0.02 0.51
9:59 pm 21:59 Cloudy 68 20 60 15.6 76 76 SSW 6 9 29.88 1012 10 16 0.00 0.03
10:59 pm 22:59 Partly Cloudy 68 20 59 15 73 73 SSW 8 13 29.91 1013 10 16 0.00 0.00
11:59 pm 23:59 Mostly Cloudy 70 21.1 61 16.1 73 73 SSW 9 15 29.91 1013 10 16 0.00 0.00

Powered by AerisWeather